TimeAKDT,TemperatureF,Dew PointF,Humidity,Sea Level PressureIn,VisibilityMPH,Wind Direction,Wind SpeedMPH,Gust SpeedMPH,PrecipitationIn,Events,Conditions,WindDirDegrees,DateUTC
12:40 AM,68.0,57.2,68,30.02,3.0,West,6.9,-,N/A,,Haze,280,2013-06-28 08:40:00
12:53 AM,66.9,57.0,70,30.01,2.5,West,5.8,-,N/A,,Haze,280,2013-06-28 08:53:00
1:11 AM,66.2,55.4,68,30.04,1.8,WSW,4.6,-,N/A,,Haze,240,2013-06-28 09:11:00
1:22 AM,66.2,55.4,68,30.04,1.8,West,6.9,-,N/A,,Haze,280,2013-06-28 09:22:00
1:53 AM,66.9,54.0,63,30.02,1.2,West,8.1,-,N/A,,Haze,280,2013-06-28 09:53:00
2:29 AM,66.2,53.6,64,30.06,2.5,WNW,6.9,-,N/A,,Haze,290,2013-06-28 10:29:00
2:53 AM,66.0,52.0,60,30.03,3.0,WNW,8.1,-,N/A,,Haze,290,2013-06-28 10:53:00
3:53 AM,64.9,52.0,63,30.04,2.5,West,5.8,-,N/A,,Haze,280,2013-06-28 11:53:00
4:18 AM,64.4,51.8,64,30.06,1.8,WSW,8.1,-,N/A,,Haze,250,2013-06-28 12:18:00
4:26 AM,64.4,51.8,64,30.06,2.5,WSW,8.1,-,N/A,,Haze,250,2013-06-28 12:26:00
4:34 AM,64.4,51.8,64,30.06,3.0,WSW,8.1,-,N/A,,Haze,240,2013-06-28 12:34:00
4:53 AM,64.0,51.1,63,30.04,2.5,WSW,9.2,-,N/A,,Haze,250,2013-06-28 12:53:00
5:20 AM,64.4,51.8,64,30.06,1.8,West,5.8,-,N/A,,Haze,260,2013-06-28 13:20:00
5:53 AM,64.0,51.1,63,30.04,1.5,WSW,6.9,-,N/A,,Haze,250,2013-06-28 13:53:00
6:53 AM,64.0,52.0,65,30.06,1.2,WSW,5.8,-,N/A,,Smoke,240,2013-06-28 14:53:00
7:43 AM,64.4,53.6,68,30.08,2.0,SW,6.9,-,N/A,,Smoke,220,2013-06-28 15:43:00
7:53 AM,64.9,54.0,68,30.06,1.2,SW,6.9,-,N/A,,Smoke,220,2013-06-28 15:53:00
8:53 AM,64.9,55.0,70,30.07,1.5,WSW,6.9,-,N/A,,Smoke,240,2013-06-28 16:53:00
9:43 AM,64.4,53.6,68,30.09,2.0,SW,5.8,-,N/A,,Smoke,230,2013-06-28 17:43:00
9:50 AM,64.4,53.6,68,30.09,1.8,SW,4.6,-,N/A,,Smoke,230,2013-06-28 17:50:00
9:53 AM,64.0,54.0,70,30.08,1.8,WSW,5.8,-,N/A,,Smoke,240,2013-06-28 17:53:00
10:02 AM,64.4,53.6,68,30.09,2.0,WSW,5.8,-,N/A,,Smoke,250,2013-06-28 18:02:00
10:44 AM,62.6,57.2,82,30.09,1.8,SW,9.2,-,0.00,Rain,Light Rain,220,2013-06-28 18:44:00
10:53 AM,61.0,57.0,87,30.09,1.8,SSW,8.1,-,0.00,Rain,Light Rain,210,2013-06-28 18:53:00
11:19 AM,60.8,57.2,88,30.10,2.5,SSW,11.5,-,0.03,Rain,Light Rain,210,2013-06-28 19:19:00
11:53 AM,62.1,57.9,86,30.09,2.0,SW,8.1,-,0.05,Rain,Light Rain,220,2013-06-28 19:53:00
12:53 PM,63.0,57.9,84,30.10,2.5,SW,4.6,-,0.00,,Smoke,220,2013-06-28 20:53:00
1:53 PM,64.0,57.9,80,30.09,2.5,Calm,Calm,-,N/A,,Smoke,0,2013-06-28 21:53:00
2:53 PM,64.9,57.0,75,30.09,2.5,SW,4.6,-,N/A,,Smoke,230,2013-06-28 22:53:00
3:53 PM,66.0,57.9,75,30.08,2.5,WNW,4.6,-,N/A,,Smoke,300,2013-06-28 23:53:00
4:02 PM,66.2,57.2,73,30.09,3.0,West,4.6,-,N/A,,Smoke,270,2013-06-29 00:02:00
4:53 PM,66.0,57.0,73,30.07,4.0,West,3.5,-,N/A,,Smoke,270,2013-06-29 00:53:00
5:53 PM,66.9,52.0,59,30.06,9.0,Calm,Calm,-,N/A,,Smoke,0,2013-06-29 01:53:00
6:53 PM,70.0,54.0,57,30.04,9.0,Calm,Calm,-,N/A,,Smoke,0,2013-06-29 02:53:00
7:53 PM,69.1,53.1,57,30.04,9.0,Calm,Calm,-,N/A,,Smoke,0,2013-06-29 03:53:00
8:53 PM,69.1,54.0,58,30.03,9.0,East,3.5,-,N/A,,Smoke,80,2013-06-29 04:53:00
9:27 PM,68.0,53.6,60,30.04,9.0,Calm,Calm,-,N/A,,Smoke,0,2013-06-29 05:27:00
9:53 PM,68.0,55.0,63,30.03,10.0,Calm,Calm,-,N/A,,Mostly Cloudy,0,2013-06-29 05:53:00
10:53 PM,64.9,57.0,75,30.04,10.0,WNW,5.8,-,N/A,,Scattered Clouds,290,2013-06-29 06:53:00
11:53 PM,63.0,55.9,78,30.04,10.0,Calm,Calm,-,N/A,,Scattered Clouds,0,2013-06-29 07:53:00